When you browse on this site, cookies collect data to enhance your experience and personalize the content and advertising you see.
Visit our Privacy Policy to learn more. By continuing to use the site, you agree to this use of cookies and data.
  • în România
  • Lista ţărilor
  • Pe 7 zile
  • Temperatura apei
  • Meteo pe hartă
  • Widget-uri
  • user-avatar
    Intrare

    Meteo pe oră la Su-Fols

    Astăzi, 31 Martie, Marţi

    Timp Temperatura Precipitaţii Vânt Presiune Umiditate
    00:00 +8°C° 0 mm 3 m/s 724 mmHg 58%
    01:00 +7°C° 0 mm 3 m/s 724 mmHg 59%
    02:00 +7°C° 0 mm 3 m/s 723 mmHg 61%
    03:00 +7°C° 0 mm 2 m/s 723 mmHg 62%
    04:00 +5°C° 0.1 mm 3 m/s 723 mmHg 64%
    05:00 +5°C° 0.1 mm 3 m/s 723 mmHg 67%
    06:00 +5°C° 0.1 mm 3 m/s 723 mmHg 70%
    07:00 +5°C° 0 mm 3 m/s 723 mmHg 69%
    08:00 +6°C° 0 mm 4 m/s 722 mmHg 68%
    09:00 +7°C° 0 mm 5 m/s 722 mmHg 67%
    10:00 +8°C° 0.1 mm 5 m/s 722 mmHg 67%
    11:00 +8°C° 0.1 mm 5 m/s 721 mmHg 67%
    12:00 +9°C° 0.1 mm 5 m/s 721 mmHg 68%
    13:00 +10°C° 0 mm 5 m/s 720 mmHg 65%
    14:00 +13°C° 0 mm 5 m/s 720 mmHg 63%
    15:00 +14°C° 0 mm 6 m/s 719 mmHg 60%
    16:00 +14°C° 0 mm 6 m/s 719 mmHg 62%
    17:00 +13°C° 0 mm 5 m/s 718 mmHg 64%
    18:00 +13°C° 0 mm 5 m/s 718 mmHg 66%
    19:00 +11°C° 0 mm 6 m/s 718 mmHg 67%
    20:00 +10°C° 0 mm 6 m/s 718 mmHg 68%
    21:00 +8°C° 0 mm 6 m/s 718 mmHg 68%
    22:00 +8°C° 0 mm 6 m/s 717 mmHg 68%
    23:00 +8°C° 0 mm 6 m/s 717 mmHg 69%

    Mâine, 1 Aprilie, Miercuri

    Timp Temperatura Precipitaţii Vânt Presiune Umiditate
    00:00 +6°C° 0 mm 7 m/s 717 mmHg 69%
    01:00 +6°C° 0.1 mm 7 m/s 716 mmHg 73%
    02:00 +5°C° 0.1 mm 7 m/s 716 mmHg 76%
    03:00 +5°C° 0.1 mm 7 m/s 716 mmHg 80%
    04:00 +5°C° 0 mm 7 m/s 716 mmHg 82%
    05:00 +5°C° 0 mm 7 m/s 716 mmHg 84%
    06:00 +5°C° 0 mm 7 m/s 716 mmHg 86%
    07:00 +6°C° 0 mm 7 m/s 716 mmHg 85%
    08:00 +8°C° 0 mm 7 m/s 715 mmHg 83%
    09:00 +10°C° 0 mm 7 m/s 715 mmHg 81%
    10:00 +12°C° 0 mm 7 m/s 715 mmHg 75%
    11:00 +15°C° 0 mm 7 m/s 716 mmHg 69%
    12:00 +17°C° 0 mm 7 m/s 716 mmHg 62%
    13:00 +19°C° 0 mm 6 m/s 715 mmHg 58%
    14:00 +20°C° 0 mm 6 m/s 715 mmHg 54%
    15:00 +21°C° 0 mm 5 m/s 715 mmHg 51%
    16:00 +19°C° 0.1 mm 4 m/s 715 mmHg 54%
    17:00 +18°C° 0.1 mm 4 m/s 715 mmHg 57%
    18:00 +17°C° 0.1 mm 3 m/s 716 mmHg 60%
    19:00 +14°C° 0.1 mm 4 m/s 716 mmHg 63%
    20:00 +11°C° 0.1 mm 6 m/s 716 mmHg 65%
    21:00 +9°C° 0.1 mm 7 m/s 717 mmHg 67%
    22:00 +8°C° 0.1 mm 7 m/s 717 mmHg 68%
    23:00 +6°C° 0.1 mm 7 m/s 717 mmHg 69%

    Poimâine, 2 Aprilie, Joi

    Timp Temperatura Precipitaţii Vânt Presiune Umiditate
    00:00 +5°C° 0.1 mm 7 m/s 718 mmHg 70%
    01:00 +4°C° 0.1 mm 7 m/s 718 mmHg 71%
    02:00 +3°C° 0.1 mm 7 m/s 718 mmHg 71%
    03:00 +2°C° 0.1 mm 7 m/s 718 mmHg 72%
    04:00 0°C° 0.4 mm 7 m/s 718 mmHg 77%
    05:00 -1°C° 0.4 mm 7 m/s 718 mmHg 82%
    06:00 -2°C° 0.4 mm 8 m/s 718 mmHg 87%
    07:00 -2°C° 0.5 mm 7 m/s 719 mmHg 88%
    08:00 -3°C° 0.5 mm 7 m/s 719 mmHg 88%
    09:00 -3°C° 0.5 mm 7 m/s 719 mmHg 89%
    10:00 -3°C° 0.2 mm 7 m/s 719 mmHg 88%
    11:00 -3°C° 0.2 mm 7 m/s 719 mmHg 87%
    12:00 -4°C° 0.2 mm 6 m/s 719 mmHg 87%
    13:00 -4°C° 0.2 mm 6 m/s 719 mmHg 87%
    14:00 -4°C° 0.2 mm 6 m/s 719 mmHg 88%
    15:00 -4°C° 0.2 mm 6 m/s 719 mmHg 88%
    16:00 -4°C° 0.2 mm 6 m/s 720 mmHg 88%
    17:00 -5°C° 0.2 mm 6 m/s 720 mmHg 88%
    18:00 -5°C° 0.2 mm 6 m/s 720 mmHg 88%
    19:00 -5°C° 0.1 mm 6 m/s 720 mmHg 88%
    20:00 -5°C° 0.1 mm 6 m/s 721 mmHg 88%
    21:00 -5°C° 0.1 mm 6 m/s 721 mmHg 89%
    22:00 -5°C° 0.1 mm 6 m/s 721 mmHg 89%
    23:00 -5°C° 0.1 mm 6 m/s 721 mmHg 89%

    3 Aprilie, Vineri

    Timp Temperatura Precipitaţii Vânt Presiune Umiditate
    00:00 -5°C° 0.1 mm 6 m/s 721 mmHg 90%
    01:00 -5°C° 0.2 mm 6 m/s 721 mmHg 89%
    02:00 -6°C° 0.2 mm 7 m/s 721 mmHg 89%
    03:00 -7°C° 0.2 mm 7 m/s 721 mmHg 89%
    04:00 -7°C° 1.2 mm 7 m/s 721 mmHg 91%
    05:00 -8°C° 1.2 mm 6 m/s 722 mmHg 93%
    06:00 -8°C° 1.2 mm 6 m/s 722 mmHg 94%
    07:00 -8°C° 0.6 mm 6 m/s 722 mmHg 94%
    08:00 -8°C° 0.6 mm 6 m/s 723 mmHg 94%
    09:00 -8°C° 0.6 mm 6 m/s 723 mmHg 93%
    10:00 -8°C° 0.2 mm 6 m/s 723 mmHg 92%
    11:00 -6°C° 0.2 mm 6 m/s 724 mmHg 91%
    12:00 -6°C° 0.2 mm 6 m/s 724 mmHg 89%
    13:00 -6°C° 0 mm 6 m/s 724 mmHg 88%
    14:00 -5°C° 0 mm 6 m/s 725 mmHg 88%
    15:00 -5°C° 0 mm 6 m/s 725 mmHg 87%
    16:00 -5°C° 0 mm 6 m/s 725 mmHg 87%
    17:00 -6°C° 0 mm 5 m/s 725 mmHg 87%
    18:00 -6°C° 0 mm 5 m/s 726 mmHg 87%
    19:00 -7°C° 0 mm 5 m/s 726 mmHg 87%
    20:00 -7°C° 0 mm 4 m/s 726 mmHg 87%
    21:00 -7°C° 0 mm 4 m/s 727 mmHg 88%
    22:00 -7°C° 0 mm 3 m/s 727 mmHg 89%
    23:00 -7°C° 0 mm 2 m/s 727 mmHg 90%

    4 Aprilie, Sâmbătă

    Timp Temperatura Precipitaţii Vânt Presiune Umiditate
    00:00 -8°C° 0 mm 2 m/s 727 mmHg 91%
    01:00 -7°C° 0 mm 1 m/s 727 mmHg 90%
    02:00 -8°C° 0 mm 1 m/s 727 mmHg 89%
    03:00 -8°C° 0 mm 1 m/s 727 mmHg 88%
    04:00 -8°C° 0 mm 0 m/s 727 mmHg 87%
    05:00 -8°C° 0 mm 0 m/s 727 mmHg 87%
    06:00 -8°C° 0 mm 0 m/s 727 mmHg 86%
    07:00 -7°C° 0 mm 1 m/s 727 mmHg 84%
    08:00 -4°C° 0 mm 1 m/s 727 mmHg 81%
    09:00 -5°C° 0 mm 2 m/s 727 mmHg 78%
    10:00 -4°C° 0 mm 2 m/s 727 mmHg 80%
    11:00 -4°C° 0 mm 3 m/s 727 mmHg 81%
    12:00 -1°C° 0 mm 3 m/s 726 mmHg 83%
    13:00 -1°C° 0 mm 4 m/s 726 mmHg 80%
    14:00 0°C° 0 mm 4 m/s 725 mmHg 78%
    15:00 +1°C° 0 mm 5 m/s 724 mmHg 76%
    16:00 +1°C° 0 mm 5 m/s 724 mmHg 76%
    17:00 +1°C° 0 mm 5 m/s 723 mmHg 77%
    18:00 +2°C° 0 mm 5 m/s 723 mmHg 77%
    19:00 +1°C° 0 mm 4 m/s 722 mmHg 80%
    20:00 0°C° 0 mm 4 m/s 722 mmHg 83%
    21:00 -1°C° 0 mm 4 m/s 722 mmHg 86%
    22:00 -1°C° 0 mm 4 m/s 722 mmHg 86%
    23:00 -1°C° 0 mm 5 m/s 722 mmHg 86%

    5 Aprilie, Duminică

    Timp Temperatura Precipitaţii Vânt Presiune Umiditate
    00:00 -1°C° 0 mm 5 m/s 722 mmHg 85%
    01:00 -1°C° 0 mm 4 m/s 722 mmHg 87%
    02:00 -1°C° 0 mm 4 m/s 721 mmHg 89%
    03:00 -2°C° 0 mm 4 m/s 721 mmHg 91%
    04:00 -1°C° 0 mm 4 m/s 721 mmHg 91%
    05:00 0°C° 0 mm 3 m/s 721 mmHg 92%
    06:00 0°C° 0 mm 3 m/s 721 mmHg 92%
    07:00 0°C° 0 mm 4 m/s 721 mmHg 91%
    08:00 +1°C° 0 mm 4 m/s 721 mmHg 89%
    09:00 +3°C° 0 mm 4 m/s 720 mmHg 87%
    10:00 +5°C° 0 mm 5 m/s 720 mmHg 84%
    11:00 +6°C° 0 mm 5 m/s 720 mmHg 80%
    12:00 +8°C° 0 mm 6 m/s 720 mmHg 76%
    13:00 +8°C° 0 mm 6 m/s 719 mmHg 78%
    14:00 +9°C° 0 mm 6 m/s 718 mmHg 80%
    15:00 +9°C° 0 mm 6 m/s 718 mmHg 81%
    16:00 +8°C° 0 mm 6 m/s 717 mmHg 85%
    17:00 +8°C° 0 mm 5 m/s 717 mmHg 88%
    18:00 +7°C° 0 mm 4 m/s 716 mmHg 92%
    19:00 +7°C° 0 mm 4 m/s 716 mmHg 93%
    20:00 +7°C° 0 mm 5 m/s 716 mmHg 94%
    21:00 +7°C° 0 mm 5 m/s 716 mmHg 95%
    22:00 +8°C° 0 mm 4 m/s 716 mmHg 96%
    23:00 +8°C° 0 mm 4 m/s 716 mmHg 96%
    Arată mai mult